SCOUT B DEB, 28265

Orbit data source: Space-Track

SCOUT B DEB, 28265 is space debris in LEO originally from a launch on Fri, 10 Jun 1966 UTC launched from the Wallops Island (WLPIS). Debris objects in space refer to the collection of defunct objects orbiting the Earth. Examples of debris include non-operational satellites, rocket bodies, and fragments generated from explosions, collisions, or faulty payload assembly.

Loading next visibility...
Identifier
28265, 1966-052E
Orbit
LEO
Country
Flag of USUS
Related business
Manufacturer
Unknown
Mission
Spacecraft
Bus & Motor
Unknown
Mass
Unknown
Launch date (UTC)
1966-06-10 (59 years ago)
Launch vehicle
Unknown
Launch site
Wallops Island (WLPIS)
Object type
Payload
Rocket body
Debris
Shape & HBR
Unknown shape, 0.1 m
Radar Cross Section
Small (<0.1 m²)

Expand to show TLE details & history
Last TLE update: 2 months ago

TLE from 2 months ago
0 SCOUT B DEB
1 28265U 66052E   25288.97068464  .00010457  00000-0  98916-2 0  9993
2 28265  40.8718  24.7840 1996913 194.1479 159.4140 10.66945596 46994
Epoch: 2025-10-15T23:17Z
TLE epoch observation values (Epoch: 2025-10-15T23:17:47.152Z)
Latitude
-0°
Longitude
10.60041°
Altitude
3,999.621 km
Speed
5.577 km/s
True Right ascension
01h 39m 08s
True Declination
0° 00' 00"
Sunlit
Object was in full shadow at epoch
Visualization orbit readout
Latitude
Unknown
Longitude
Unknown
Altitude
Unknown
Speed
Unknown
Apparent Right ascension
Unknown
Apparent Declination
Unknown
Sunlit
N/A
Visualization observer readout
Local Sidereal Time
01:56:03
Azimuth
Unknown
Elevation
Unknown
Doppler factor
Unknown
Orbital elements
Apogee altitude
4,080.438 km
Perigee altitude
598.731 km
Semi-major axis
8,717.722 km
Eccentricity
0.19969
Inclination
40.8718°
RAAN
24.784°
Arg. of periapsis
194.1479°
True anomaly
165.91478°
Mean anomaly
159.414°
Eccentric anomaly
162.79776°
Mean motion
2.66648 °/min
Orbital period
135.01 mins
BSTAR
0.0098916
Loading maneuver chart data...
Computing Atmospheric mass density...
Loading historical data...
Loading historical data...
Loading historical data...
Loading historical data...
Loading historical data...
Loading historical data...
Loading historical data...
Other satellites on launch #52 in the year 1966 (1966-06-10 UTC)

Documentation

Showing up to 5 results
|